{"data":{"norad_id":48780,"epoch":"2026-09-20T04:00:14.556096Z","epoch_age_seconds":46902,"freshness":"FRESH","line1":"1 48780U 21045P   26263.16683514  .00000048  00000+0  93449-4 0  9996","line2":"2 48780  87.9001 240.2550 0001962  80.5085 279.6267 13.15547405256812","mean_motion":13.15547405,"eccentricity":0.0001962,"inclination_deg":87.9001,"raan_deg":240.255,"arg_perigee_deg":80.5085,"mean_anomaly_deg":279.6267,"bstar":9.3449e-5,"rev_number":25681,"period_min":109.46013762233,"perigee_km":1200.2879868603,"apogee_km":1203.2623443941,"semimajor_km":7579.9121656272,"source":"CELESTRAK","updated_at":"2026-09-20T09:00:44.617689Z"}}